Location: Lake Arresoe
(56.0000°N, 12.5000°E)
Time: 17:30:32
(UTC+02:00)

CZ-3 Stage 3 - Pass Details

Date: 14 August 2020
Orbit: 426 x 34763 km, 31.1° (Epoch: 22 September)

Event Time Altitude Azimuth Distance (km) Brightness Sun altitude
Rises 00:27:40 0° 54° (NE) 37,828 11.4 -19.0°
Reaches altitude 10° 03:07:11 10° 62° (ENE) 38,272 11.9 -15.9°
Maximum altitude 03:57:30 11° 65° (ENE) 35,291 12.0 -11.9°
Drops below altitude 10° 04:38:26 10° 66° (ENE) 31,692 12.1 -7.9°
Sets 05:45:53 0° 65° (ENE) 23,287 14.4 -0.1°
